Location: Waning Moon II Observatory
(30.3730°N, 89.7620°W)
Time: 12:02:22
(UTC-06:00)

Cosmos 1825 Rocket - Visible Passes

Search period start: 28 November 2014 00:00
Search period end: 08 December 2014 00:00
Orbit: 605 x 633 km, 82.5° (Epoch: 27 November)

Date Brightness Start Highest point End Pass type
(mag) Time Alt. Az. Time Alt. Az. Time Alt. Az.
28 Nov 6.5 05:29:53 10° NE 05:32:19 15° ENE 05:34:43 10° ESE visible
28 Nov 5.7 19:31:16 10° SSW 19:33:10 23° SW 19:33:10 23° SW visible
29 Nov 5.6 05:46:02 10° NNE 05:49:48 29° E 05:53:33 10° SE visible
29 Nov 4.7 18:11:30 10° SE 18:14:22 24° ESE 18:14:22 24° ESE visible
29 Nov 6.2 19:49:40 10° SW 19:51:36 17° W 19:51:36 17° W visible
30 Nov 4.2 06:02:55 10° N 06:07:13 61° E 06:11:27 10° SSE visible
30 Nov 3.7 18:28:02 10° SSE 18:32:20 51° E 18:32:48 49° ENE visible
01 Dec 3.7 18:45:12 10° S 18:49:38 76° W 18:51:13 39° N visible
02 Dec 6.4 05:01:18 10° NE 05:03:54 16° ENE 05:06:28 10° ESE visible
02 Dec 5.3 17:27:26 10° ESE 17:29:33 13° E 17:31:40 10° ENE visible
02 Dec 5.0 19:02:56 10° SSW 19:07:01 36° W 19:09:35 19° NNW visible
03 Dec 5.4 05:17:33 10° NNE 05:21:23 31° E 05:25:11 10° SE visible
03 Dec 4.5 17:42:59 10° SSE 17:46:42 26° E 17:50:24 10° NNE visible
03 Dec 6.2 19:21:24 10° WSW 19:24:29 18° WNW 19:27:33 10° NNW visible
04 Dec 3.9 05:34:28 10° N 05:38:46 65° E 05:43:02 10° SSE visible
04 Dec 3.6 17:59:35 10° S 18:03:55 55° E 18:08:14 10° NNE visible
05 Dec 3.6 05:51:49 10° NNW 05:56:04 58° W 06:00:17 10° S visible
05 Dec 3.8 18:16:48 10° SSW 18:21:13 71° W 18:25:37 10° N visible
06 Dec 6.3 04:32:43 10° NE 04:35:28 16° ENE 04:38:12 10° ESE visible
06 Dec 4.5 06:09:37 10° NNW 06:13:17 28° W 06:16:56 10° SSW visible
06 Dec 5.2 18:34:35 10° SW 18:38:35 34° W 18:42:36 10° NNW visible
07 Dec 5.2 04:49:03 10° NNE 04:52:56 32° E 04:56:48 10° SE visible
07 Dec 6.3 18:53:08 10° WSW 18:56:03 17° WNW 18:58:58 10° NW visible
